EHI
26 46 61 57 49 43 37 36 40 43 39 29 22 22 19 15 13 13 15 15 12 8 7 11 18 24 24 16 9 8 7 5 3 1 0 0 1 1 0 0 1 2 3
37 53 66 66 61 56 51 51 57 61 57 47 38 34 29 24 20 19 20 18 14 11 10 13 19 23 22 15 8 6 5 3 2 0 0 0 1 1 0 1 2 2 2
56 60 67 75 77 75 71 71 76 79 76 68 60 52 45 38 31 27 24 20 16 13 12 15 17 19 18 11 5 3 2 1 0 0 0 0 1 1 0 1 2 1 1
66 63 65 77 87 88 86 84 84 85 82 78 72 66 60 53 46 35 25 20 16 13 12 12 12 12 10 6 3 1 0 0 0 0 0 0 0 0 0 1 1 1 0
61 60 66 79 90 93 92 89 88 86 83 79 75 73 70 66 56 42 27 19 15 14 12 11 9 8 6 4 3 1 0 0 0 0 0 1 1 1 0 0 0 0 0
54 56 67 81 89 93 93 91 89 87 82 79 78 77 75 71 60 44 29 19 15 14 13 10 8 7 6 5 3 1 0 0 0 0 0 1 3 4 2 0 0 0 0
52 56 69 82 88 90 90 89 89 87 84 82 82 81 79 74 63 47 32 23 16 14 13 10 7 7 6 5 3 1 0 0 1 0 0 2 6 7 3 0 0 0 0
51 56 69 78 81 83 85 86 87 86 85 85 86 85 82 77 66 50 35 26 18 13 11 9 7 6 5 3 2 1 0 0 0 0 0 2 7 7 3 1 1 0 0
47 54 63 66 67 70 74 78 81 82 82 85 87 85 80 73 61 44 31 25 19 13 10 8 6 5 3 1 1 0 0 0 0 0 0 2 5 4 2 2 2 2 1
47 52 55 54 52 51 54 64 70 74 78 81 82 77 66 53 41 28 22 22 18 12 9 7 5 4 2 1 0 0 0 0 0 0 0 2 4 2 1 2 4 5 5
54 55 54 52 46 38 41 54 59 61 63 62 61 56 41 26 18 14 19 24 18 11 8 6 4 2 1 0 0 0 0 0 0 0 1 4 4 2 0 2 5 7 8
64 62 59 57 50 42 45 55 55 50 47 41 40 39 30 22 14 12 21 24 17 10 7 5 3 1 0 0 0 0 0 0 0 0 2 5 4 1 1 3 6 7 8
65 62 59 59 56 52 54 60 59 55 49 42 42 45 43 37 27 21 21 20 15 10 6 4 2 0 0 0 0 0 0 0 0 1 3 5 4 1 2 5 8 8 6
61 56 53 55 57 58 61 64 64 62 57 55 57 57 53 47 38 29 22 16 13 10 6 3 1 0 0 0 0 0 0 0 1 3 5 4 3 2 5 9 11 10 8
60 54 50 52 58 63 66 66 63 60 56 59 60 54 48 45 40 33 25 19 13 11 10 7 3 1 1 0 0 1 1 1 1 3 5 5 4 5 8 12 15 15 14
56 53 50 53 59 65 66 63 59 54 54 57 57 48 39 38 38 32 26 21 16 15 16 12 8 5 3 1 0 1 1 1 2 3 3 4 5 6 8 12 15 16 16
51 49 49 52 58 63 63 60 55 52 52 53 53 48 40 36 35 30 25 22 21 21 22 18 13 9 6 3 1 1 2 2 2 1 1 2 3 3 5 9 12 12 11
50 48 48 52 56 59 58 54 50 48 49 49 49 47 42 35 31 30 28 28 27 25 22 19 16 12 8 5 3 3 3 3 1 0 0 1 1 1 2 4 6 6 5
48 47 49 52 52 51 49 47 43 41 41 42 41 39 38 34 30 30 33 34 30 24 19 16 15 11 7 4 3 3 3 2 1 1 1 1 1 2 2 2 3 3 2
39 41 44 46 45 41 41 41 38 34 31 28 27 27 29 29 27 26 29 32 29 22 17 15 13 9 5 3 1 1 2 2 1 1 2 2 2 3 3 3 3 3 2
30 31 34 35 35 35 37 40 38 31 22 17 16 17 19 19 18 18 21 25 24 19 17 15 11 6 3 1 0 1 2 3 1 1 3 4 4 3 3 3 3 2 2
24 24 25 26 27 30 34 37 34 25 15 11 10 11 11 10 10 11 13 15 15 15 14 11 8 4 1 1 0 1 2 2 2 2 3 4 2 1 1 1 1 1 2
20 21 21 21 22 23 25 27 24 17 11 8 7 6 5 5 5 7 8 8 8 8 7 6 4 2 1 0 0 0 1 1 2 2 2 1 0 0 0 0 0 0 1
15 16 17 18 17 15 16 18 17 13 9 6 4 2 1 1 1 3 5 5 4 3 3 2 1 1 0 0 0 0 0 0 1 1 0 0 0 0 0 0 0 0 0
11 13 13 14 13 11 12 14 15 11 7 3 2 0 0 0 0 1 3 2 1 1 1 1 1 0 0 0 0 0 0 0 0 0 0 0 0 0 0 0 0 0 0
10 12 12 11 10 9 10 13 14 9 4 1 0 0 0 0 0 0 1 0 0 0 1 1 1 0 0 0 0 0 0 0 0 0 0 0 0 0 0 0 0 0 0
Wind_Speed
12 17 18 14 12 12 14 15 15 16 16 15 15 15 14 13 12 12 11 11 10 10 10 10 11 11 11 11 11 12 12 12 13 13 13 12 11 11 11 10 10 11 13
14 18 18 14 13 13 14 15 15 16 16 15 15 15 14 13 12 11 11 10 10 10 10 10 11 11 11 11 11 11 11 11 11 12 12 12 11 10 9 6 2 11 11
16 18 18 14 14 14 14 15 16 16 16 16 15 15 14 13 12 11 11 10 10 10 10 10 10 11 11 11 10 10 10 10 10 10 10 9 11 9 8 6 9 11 10
17 17 18 17 15 15 15 15 16 17 17 16 16 15 15 14 12 12 11 11 10 10 10 10 10 10 10 10 9 9 9 8 8 8 8 7 9 10 8 8 9 9 9
16 16 18 18 16 16 16 16 16 17 17 16 16 15 14 13 12 12 11 11 10 10 10 10 10 9 9 9 8 8 7 7 6 10 4 5 7 10 9 8 8 9 8
17 17 19 18 17 17 17 17 17 17 17 16 15 15 14 13 12 11 11 11 10 10 10 9 9 9 8 8 7 7 6 5 9 5 4 4 7 10 9 9 8 8 8
18 17 20 17 16 17 17 17 16 16 15 15 14 14 13 12 11 11 11 11 10 10 9 9 8 8 7 7 6 6 4 4 9 4 4 3 7 11 9 9 8 8 8
17 18 19 18 18 17 16 15 15 14 14 13 13 13 12 11 11 11 11 10 9 9 9 9 8 7 7 6 5 4 3 6 6 3 3 3 10 9 9 9 8 8 8
17 17 18 18 17 17 14 14 13 13 13 13 13 12 12 11 11 11 10 10 9 9 9 8 7 7 6 5 4 3 2 5 10 3 4 3 10 8 8 9 9 9 9
15 16 16 17 17 17 16 15 14 13 13 13 14 14 13 12 11 11 11 10 9 9 8 8 7 6 5 5 4 3 3 7 9 4 3 6 9 8 9 9 10 10 10
14 15 15 16 16 15 15 15 15 15 13 14 14 13 13 12 12 11 10 11 9 9 8 7 7 6 6 7 5 4 7 8 5 2 1 9 7 9 10 10 10 11 11
15 15 14 15 15 15 12 12 11 12 12 12 11 12 10 7 6 7 12 9 9 8 8 7 7 8 10 8 10 9 7 7 5 3 3 8 6 8 10 10 11 12 12
14 13 14 13 12 12 9 9 7 7 8 10 11 11 7 6 6 6 7 9 9 10 9 10 10 8 7 3 3 5 4 5 4 3 4 8 5 7 9 10 11 12 12
12 12 13 13 11 10 8 7 7 6 7 7 9 10 8 5 5 5 5 6 6 6 5 5 5 5 4 4 5 5 4 4 3 3 3 6 3 6 8 9 10 11 12
10 11 11 11 11 9 8 7 7 6 7 7 7 8 7 6 6 6 4 3 5 4 6 5 5 4 4 5 4 3 3 3 4 4 1 6 3 3 5 6 7 9 10
8 9 10 11 12 11 9 7 6 6 4 5 6 8 8 6 5 4 5 4 4 3 3 3 4 4 3 2 2 2 3 2 2 3 3 3 5 2 1 3 4 5 6
5 7 8 9 9 10 9 8 6 6 5 4 4 6 7 6 6 5 4 4 3 3 3 3 3 3 3 3 2 2 1 1 1 2 3 3 0 4 3 3 3 2 2
3 4 5 5 7 8 7 6 4 4 4 3 3 4 6 6 6 5 4 4 3 3 3 3 3 2 2 1 1 1 0 0 1 2 2 2 3 3 4 7 6 5 3
2 1 3 4 5 6 6 5 3 3 2 2 1 1 2 3 4 4 3 2 3 2 2 3 2 2 1 1 1 0 0 1 1 2 3 3 4 4 3 5 6 7 7
5 4 2 3 4 5 5 5 4 4 3 2 2 2 3 2 2 3 3 3 2 2 2 2 2 1 1 1 1 1 1 1 2 2 3 3 4 5 5 6 4 5 9
6 5 3 2 3 4 4 5 5 4 4 3 3 3 3 4 3 3 3 3 3 2 2 2 2 3 1 1 2 2 2 3 3 3 4 4 6 6 6 6 5 5 4
6 5 4 2 1 2 3 4 4 5 4 4 5 5 5 5 5 4 4 4 4 3 4 2 1 1 2 1 2 3 3 4 3 4 4 5 6 5 7 8 7 7 5
7 6 5 4 2 2 5 6 6 6 5 4 5 5 6 7 6 6 6 6 5 4 4 3 1 1 2 1 3 3 3 1 2 4 6 6 6 6 6 6 8 8 7
7 6 6 6 6 4 4 6 8 6 6 5 5 6 8 9 8 7 8 8 7 6 5 4 3 2 1 2 2 3 4 3 1 2 3 4 6 6 6 5 6 7 7
7 7 7 8 9 8 6 7 8 8 8 7 7 9 9 9 9 9 9 9 8 8 8 7 6 5 4 3 3 2 3 2 2 1 1 2 3 4 5 5 5 5 6
8 8 8 9 10 9 10 9 10 12 11 10 9 9 8 7 8 10 10 9 9 8 8 8 8 10 8 7 5 4 3 3 2 2 1 0 1 3 4 4 4 4 5
Wind_Direction
157 145 140 145 142 140 142 145 145 144 144 144 143 141 140 138 135 132 129 125 120 115 112 110 111 111 112 115 116 117 120 122 124 125 126 126 126 126 124 136 161 119 117
153 145 142 145 143 140 142 145 144 143 143 143 143 142 141 139 136 134 131 127 124 120 118 115 114 114 116 119 120 122 124 126 130 133 136 134 130 127 131 149 26 109 132
150 146 149 145 143 141 140 143 143 143 143 143 144 144 142 140 138 136 134 131 128 125 123 121 119 118 120 122 123 125 127 130 135 145 166 150 131 135 137 127 100 124 135
150 151 155 146 145 143 140 142 143 145 146 146 146 146 145 143 141 140 139 136 133 130 128 126 124 122 123 124 125 126 127 131 144 180 189 134 136 137 147 140 136 141 142
151 155 148 151 149 146 144 145 147 148 148 149 149 148 147 146 144 143 142 140 136 133 132 129 126 125 126 126 126 126 126 133 163 223 137 124 124 140 157 156 156 156 154
155 157 150 157 153 150 150 150 151 151 151 151 151 150 148 147 147 146 144 142 139 136 135 131 127 126 128 127 126 125 131 154 211 186 120 148 136 149 167 171 172 168 168
159 158 153 159 155 154 154 154 154 153 152 152 151 150 149 149 149 147 146 144 142 140 137 133 129 127 127 125 123 121 138 202 254 139 150 170 118 146 176 183 181 181 183
160 158 152 159 160 159 159 157 155 154 153 152 151 150 150 150 149 148 146 144 143 142 139 135 132 130 126 126 126 125 154 252 236 159 169 142 115 159 185 193 194 193 196
162 158 158 164 165 164 161 160 157 155 154 152 151 151 152 152 152 152 149 147 146 145 142 140 141 139 135 136 138 143 191 264 270 182 184 140 132 178 198 200 202 202 206
167 163 163 167 167 170 168 166 163 161 158 156 157 158 156 156 159 158 162 153 154 152 151 150 153 153 150 152 159 177 218 247 251 214 191 128 146 192 208 208 209 210 213
170 165 168 170 171 176 171 166 171 170 166 164 165 163 170 179 171 174 159 150 162 161 161 162 166 170 178 177 185 204 232 245 228 249 244 111 163 205 217 215 216 217 217
172 171 173 173 173 177 172 167 179 180 173 186 172 173 192 182 181 172 132 161 168 170 172 174 179 193 219 198 181 202 232 240 264 222 140 126 182 218 227 223 220 222 223
173 173 174 173 176 177 175 174 179 184 174 191 177 180 186 179 182 178 167 171 180 186 191 173 195 211 213 222 234 217 246 268 262 254 126 137 195 229 236 232 225 224 225
173 178 176 172 175 181 181 180 185 186 180 187 180 189 181 188 188 190 198 184 182 191 192 200 206 197 216 212 233 250 239 248 268 276 109 130 198 240 246 238 231 228 228
174 177 179 176 174 179 182 189 195 196 193 185 180 193 190 186 193 184 192 195 206 188 185 206 209 187 212 211 224 242 265 271 289 291 140 133 167 245 260 250 241 236 233
178 180 180 181 177 180 185 192 189 192 197 188 191 191 196 194 189 187 186 190 209 207 212 204 192 192 214 218 220 225 269 281 299 303 307 135 143 143 279 275 264 248 237
177 179 181 185 179 185 187 190 187 188 185 189 197 189 193 197 189 196 190 191 195 188 187 206 192 200 202 195 197 207 233 305 332 325 316 317 72 126 98 53 23 344 282
162 174 179 186 180 183 177 171 175 186 177 180 186 184 193 195 191 199 192 196 186 186 189 188 198 202 203 209 220 286 318 53 354 353 337 348 0 12 87 74 54 40 24
81 143 175 177 168 164 155 150 147 147 128 122 122 163 178 180 192 185 181 177 186 185 192 203 169 209 207 212 201 141 14 21 15 25 17 19 28 17 18 72 72 58 43
63 72 112 144 139 152 154 148 147 131 115 107 105 117 125 134 151 148 143 149 161 160 162 161 143 130 180 193 212 101 65 56 43 43 30 43 39 33 28 24 34 60 60
53 56 54 101 136 152 161 161 152 139 121 99 83 77 93 100 108 119 127 120 116 122 128 147 148 143 145 181 213 192 151 101 75 59 48 43 48 44 42 37 33 27 42
47 43 43 55 118 166 159 145 129 117 100 89 71 61 65 81 88 99 108 107 98 106 96 86 126 171 119 350 272 237 205 164 107 63 60 56 47 46 47 44 42 40 31
36 31 29 25 50 115 130 123 118 113 103 86 77 62 53 66 75 81 90 86 81 82 83 72 61 166 149 101 2 308 277 222 122 97 64 59 53 48 48 47 47 41 35
36 36 41 45 51 70 110 126 131 125 114 99 93 83 69 63 64 69 76 79 76 75 76 73 58 59 119 136 94 41 28 23 297 145 118 80 63 52 45 43 43 44 35
44 48 52 60 60 62 80 105 112 107 102 100 95 90 79 67 62 65 70 73 72 70 69 67 67 59 60 59 65 72 76 73 19 296 127 99 87 67 49 46 42 38 36
49 55 61 66 65 64 71 84 97 105 109 108 102 95 84 75 67 66 70 72 72 72 71 70 71 69 66 64 60 52 48 46 40 20 55 114 76 79 54 45 38 32 28